Satellite: NOAA-11
Catalog number: 19531
Epoch time:      08185.29119030
Element set:     219
Inclination:      098.7982 deg
RA of node:       274.3921 deg
Eccentricity:    0.0011956
Arg of perigee:   026.3243 deg
Mean anomaly:     333.8543 deg
Mean motion:   14.14873170 rev/day
Decay rate:       1.81e-06 rev/day^2
Epoch rev:            2018
Checksum:              289

Satellite: NOAA-12
Catalog number: 21263
Epoch time:      08185.55591256
Element set:     736
Inclination:      098.7656 deg
RA of node:       187.5054 deg
Eccentricity:    0.0013545
Arg of perigee:   079.1835 deg
Mean anomaly:     281.0886 deg
Mean motion:   14.25536757 rev/day
Decay rate:      -1.01e-06 rev/day^2
Epoch rev:           89072
Checksum:              332

Satellite: MET-3/5
Catalog number: 21655
Epoch time:      08185.90640830
Element set:     454
Inclination:      082.5557 deg
RA of node:       092.5781 deg
Eccentricity:    0.0013205
Arg of perigee:   337.6356 deg
Mean anomaly:     022.4188 deg
Mean motion:   13.17015950 rev/day
Decay rate:        5.1e-07 rev/day^2
Epoch rev:           81178
Checksum:              299

Satellite: MET-2/21
Catalog number: 22782
Epoch time:      08184.75690167
Element set:    0186
Inclination:      082.5485 deg
RA of node:       099.2301 deg
Eccentricity:    0.0020996
Arg of perigee:   245.6027 deg
Mean anomaly:     114.2944 deg
Mean motion:   13.83630915 rev/day
Decay rate:       -9.0e-08 rev/day^2
Epoch rev:           74928
Checksum:              327

Satellite: OKEAN-4
Catalog number: 23317
Epoch time:      08185.72690773
Element set:     630
Inclination:      082.5409 deg
RA of node:       299.6344 deg
Eccentricity:    0.0024013
Arg of perigee:   074.0776 deg
Mean anomaly:     286.3061 deg
Mean motion:   14.82620803 rev/day
Decay rate:       -1.4e-07 rev/day^2
Epoch rev:           74073
Checksum:              296

Satellite: NOAA-14
Catalog number: 23455
Epoch time:      08185.40119695
Element set:     203
Inclination:      098.9470 deg
RA of node:       257.6536 deg
Eccentricity:    0.0010419
Arg of perigee:   098.8012 deg
Mean anomaly:     261.4357 deg
Mean motion:   14.13745360 rev/day
Decay rate:       2.64e-06 rev/day^2
Epoch rev:           69664
Checksum:              315

Satellite: SICH-1
Catalog number: 23657
Epoch time:      08185.69439220
Element set:     428
Inclination:      082.5273 deg
RA of node:       080.6586 deg
Eccentricity:    0.0025752
Arg of perigee:   066.7994 deg
Mean anomaly:     293.5928 deg
Mean motion:   14.81589767 rev/day
Decay rate:       2.28e-06 rev/day^2
Epoch rev:           69266
Checksum:              362

Satellite: NOAA-15
Catalog number: 25338
Epoch time:      08185.44005917
Element set:     525
Inclination:      098.5532 deg
RA of node:       176.8839 deg
Eccentricity:    0.0010697
Arg of perigee:   001.1756 deg
Mean anomaly:     358.9452 deg
Mean motion:   14.24712021 rev/day
Decay rate:       1.05e-06 rev/day^2
Epoch rev:           52711
Checksum:              300

Satellite: RESURS
Catalog number: 25394
Epoch time:      08184.91670970
Element set:    0981
Inclination:      098.3877 deg
RA of node:       228.1601 deg
Eccentricity:    0.0001861
Arg of perigee:   121.3792 deg
Mean anomaly:     238.7569 deg
Mean motion:   14.24163320 rev/day
Decay rate:       -5.0e-08 rev/day^2
Epoch rev:           51868
Checksum:              315

Satellite: FENGYUN1
Catalog number: 25730
Epoch time:      08185.54741485
Element set:     475
Inclination:      098.7210 deg
RA of node:       160.7765 deg
Eccentricity:    0.0021840
Arg of perigee:   119.7638 deg
Mean anomaly:     240.5707 deg
Mean motion:   14.07710734 rev/day
Decay rate:       7.95e-06 rev/day^2
Epoch rev:           47126
Checksum:              312

Satellite: OKEAN-0
Catalog number: 25860
Epoch time:      08184.59901441
Element set:    0409
Inclination:      097.7503 deg
RA of node:       174.4638 deg
Eccentricity:    0.0000685
Arg of perigee:   095.6903 deg
Mean anomaly:     264.4383 deg
Mean motion:   14.73527358 rev/day
Decay rate:        2.8e-07 rev/day^2
Epoch rev:           48166
Checksum:              324

Satellite: NOAA-16
Catalog number: 26536
Epoch time:      08185.57035588
Element set:     996
Inclination:      099.1555 deg
RA of node:       175.1058 deg
Eccentricity:    0.0010511
Arg of perigee:   174.4770 deg
Mean anomaly:     185.6494 deg
Mean motion:   14.12487535 rev/day
Decay rate:      -1.66e-06 rev/day^2
Epoch rev:           40108
Checksum:              329

Satellite: NOAA-17
Catalog number: 27453
Epoch time:      08185.42424317
Element set:     986
Inclination:      098.5335 deg
RA of node:       249.5800 deg
Eccentricity:    0.0012716
Arg of perigee:   063.9769 deg
Mean anomaly:     296.2728 deg
Mean motion:   14.23986208 rev/day
Decay rate:       2.74e-06 rev/day^2
Epoch rev:           31311
Checksum:              330

Satellite: NOAA-18
Catalog number: 28654
Epoch time:      08185.43126712
Element set:     487
Inclination:      098.8671 deg
RA of node:       126.1627 deg
Eccentricity:    0.0013278
Arg of perigee:   269.5780 deg
Mean anomaly:     090.3860 deg
Mean motion:   14.11173740 rev/day
Decay rate:      -2.08e-06 rev/day^2
Epoch rev:           16076
Checksum:              319

/EX
SB KEPS @ AMSAT  $ORB08185.M
Orbital Elements  08185.MISC

HR AMSAT ORBITAL ELEMENTS FOR MANNED AND MISCELLANEOUS SATELLITES
FROM WA5QGD FORT WORTH,TX July 3, 2008
Send Subscribe/unsubscribe to KEPS at 
http://www.amsat.org/mailman/listinfo/keps
BID: ORB08185.M
TO ALL RADIO AMATEURS BT

Satellite: HUBBLE
Catalog number: 20580
Epoch time:      08184.50997587
Element set:     169
Inclination:      028.4693 deg
RA of node:       223.2820 deg
Eccentricity:    0.0003796
Arg of perigee:   183.6672 deg
Mean anomaly:     176.3889 deg
Mean motion:   15.00390484 rev/day
Decay rate:       2.85e-06 rev/day^2
Epoch rev:           79728
Checksum:              344

Satellite: PO-34
Catalog number: 25520
Epoch time:      08185.90458107
Element set:      28
Inclination:      028.4595 deg
RA of node:       066.8568 deg
Eccentricity:    0.0005453
Arg of perigee:   110.5740 deg
Mean anomaly:     249.5435 deg
Mean motion:   15.17206574 rev/day
Decay rate:       2.71e-06 rev/day^2
Epoch rev:           53570
Checksum:              304

Satellite: ISS
Catalog number: 25544
Epoch time:      08185.54252005
Element set:     785
Inclination:      051.6399 deg
RA of node:       292.2653 deg
Eccentricity:    0.0008498
Arg of perigee:   328.8724 deg
Mean anomaly:     140.2343 deg
Mean motion:   15.74921874 rev/day
Decay rate:      9.588e-05 rev/day^2
Epoch rev:           55110
Checksum:              325

Satellite: CO-58
Catalog number: 28895
Epoch time:      08185.70927332
Element set:      60
Inclination:      098.0985 deg
RA of node:       079.3233 deg
Eccentricity:    0.0017924
Arg of perigee:   001.7223 deg
Mean anomaly:     358.4041 deg
Mean motion:   14.59680355 rev/day
Decay rate:        8.6e-07 rev/day^2
Epoch rev:           14289
Checksum:              330

Satellite: NCUBE2
Catalog number: 28897
Epoch time:      08185.67187151
Element set:     591
Inclination:      098.0951 deg
RA of node:       079.2153 deg
Eccentricity:    0.0017624
Arg of perigee:   003.0182 deg
Mean anomaly:     357.1120 deg
Mean motion:   14.59851668 rev/day
Decay rate:        8.8e-07 rev/day^2
Epoch rev:           13517
Checksum:              317

Satellite: FCAL
Catalog number: 29667
Epoch time:      08146.34060426
Element set:     979
Inclination:      051.6107 deg
RA of node:       065.3702 deg
Eccentricity:    0.0009039
Arg of perigee:   260.8350 deg
Mean anomaly:     099.5042 deg
Mean motion:   16.53464210 rev/day
Decay rate:  1.1864717e-01 rev/day^2
Epoch rev:            8291
Checksum:              307

Satellite: FALCON
Catalog number: 30776
Epoch time:      08185.05190854
Element set:     345
Inclination:      035.4339 deg
RA of node:       057.2751 deg
Eccentricity:    0.0000488
Arg of perigee:   222.4690 deg
Mean anomaly:     137.5988 deg
Mean motion:   15.03013135 rev/day
Decay rate:       1.87e-06 rev/day^2
Epoch rev:            7253
Checksum:              293

Satellite: MAST
Catalog number: 31126
Epoch time:      08185.76353425
Element set:     366
Inclination:      098.0389 deg
RA of node:       249.5366 deg
Eccentricity:    0.0093345
Arg of perigee:   280.6123 deg
Mean anomaly:     078.4580 deg
Mean motion:   14.53431916 rev/day
Decay rate:        9.7e-07 rev/day^2
Epoch rev:            6442
Checksum:              314

Satellite: CAPE1
Catalog number: 31130
Epoch time:      08185.17964081
Element set:     344
Inclination:      098.0371 deg
RA of node:       247.9477 deg
Eccentricity:    0.0101480
Arg of perigee:   285.6617 deg
Mean anomaly:     073.3400 deg
Mean motion:   14.51973663 rev/day
Decay rate:       1.87e-06 rev/day^2
Epoch rev:            6404
Checksum:              296

Satellite: CUTE1-7
Catalog number: 32785
Epoch time:      08185.39809653
Element set:      93
Inclination:      097.9922 deg
RA of node:       245.2789 deg
Eccentricity:    0.0016265
Arg of perigee:   082.5436 deg
Mean anomaly:     277.7627 deg
Mean motion:   14.81372026 rev/day
Decay rate:        1.8e-07 rev/day^2
Epoch rev:             980
Checksum:              342

Satellite: COMPASS
Catalog number: 32787
Epoch time:      08185.39583367
Element set:      82
Inclination:      097.9874 deg
RA of node:       245.2432 deg
Eccentricity:    0.0017156
Arg of perigee:   085.0016 deg
Mean anomaly:     275.3168 deg
Mean motion:   14.81428449 rev/day
Decay rate:        5.8e-07 rev/day^2
Epoch rev:             980
Checksum:              326

